User: anonymous
Location: South Tamworth Observatory
(43.8246°N, 71.3026°W)
Time: 11:51:42
(UTC-04:00)
Language:

Cosmos 1844 - Orbit

View from above orbital plane
View from above orbital plane
View from above satellite
View from above satellite

Ground track
Ground track

The orbit data is extracted from the following two-line orbital elements,

1 17973U 87041A   14273.28574322 -.00000040  00000-0  41604-5 0  8508
2 17973 070.9011 201.8133 0030244 176.9716 346.0444 14.13950373413071
Epoch (UTC): 30 September 2014 06:51:28
Eccentricity: 0.0030244
inclination: 70.9011°
perigee height: 824 km
apogee height: 868 km
right ascension of ascending node: 201.8133°
argument of perigee: 176.9716°
revolutions per day: 14.13950373
mean anomaly at epoch: 346.0444°
orbit number at epoch: 41307

The dashed part of the orbit path shows where the satellite is in the earth's shadow,  

DLR